Regional Weather Roundup
Issued by NWS Little Rock, AR

Home | Current Version | Previous Version | Graphics & Text | Print | Product List | Glossary On
Versions: 1 2 3 4 5 6 7 8 9 10 11 12 13 14 15 16 17 18 19 20 21 22 23 24 25 26 27 28 29 30
000
ASUS44 KLZK 290205
RWRLZK

WEATHER ROUNDUP FOR ARKANSAS
NATIONAL WEATHER SERVICE LITTLE ROCK AR
900 PM CDT WED JUN 28 2017

NOTE: "FAIR" INDICATES FEW OR NO CLOUDS BELOW 12,000 FEET WITH NO
SIGNIFICANT WEATHER AND/OR OBSTRUCTIONS TO VISIBILITY.

ARZ001-003-010-029-290300-
NORTHWEST ARKANSAS

CITY           SKY/WX    TMP DP  RH WIND       PRES   REMARKS
FORT SMITH     CLEAR     82  68  62 S7        29.87R HX  85
HARRISON       CLEAR     74  65  73 S6        29.93R
BENTONVILLE    CLEAR     79  64  61 S8        29.89S
ROGERS         CLEAR     78  67  68 SE10      29.90S
SILOAM SPGS    CLEAR     79  64  61 S8        29.88R
HIGHFILL       CLEAR     79  66  64 S12       29.89R
SPRINGDALE     CLEAR     79  66  65 SE7       29.91S
$$

ARZ004-005-016-290300-
NORTH CENTRAL ARKANSAS

CITY           SKY/WX    TMP DP  RH WIND       PRES   REMARKS
BATESVILLE     CLEAR     79  64  61 SE5       29.93S
FLIPPIN        CLEAR     79  63  57 SE3       29.89R
MTN HOME       CLEAR     76  65  68 S5        29.91S
$$

ARZ040-041-290300-
WEST CENTRAL ARKANSAS

CITY           SKY/WX    TMP DP  RH WIND       PRES   REMARKS
MENA           PTCLDY    82  70  65 SE3       29.93R HX  86
MOUNT IDA      CLEAR     79  66  64 CALM      29.90S
$$

ARZ009-017-025-026-028-290300-
NORTHEAST ARKANSAS

CITY           SKY/WX    TMP DP  RH WIND       PRES   REMARKS
JONESBORO      CLEAR     79  69  71 S6        29.93S
WALNUT RIDGE   CLEAR     79  66  65 S9        29.92S
$$

ARZ022-023-033-042-044-290300-
CENTRAL ARKANSAS

CITY           SKY/WX    TMP DP  RH WIND       PRES   REMARKS
LITTLE ROCK    CLEAR     79  68  69 SE7       29.93R
N LITTLE ROCK    N/A     80  68  65 S6        29.92R
JACKSONVILLE   CLEAR     80  68  67 SE3       29.92R
CONWAY           N/A     81  70  69 SE6       29.90R
SEARCY         CLEAR     78  70  76 S5        29.95R
HOT SPRINGS    CLEAR     82  69  64 SE5       29.92S HX  85
RUSSELLVILLE     N/A     79  68  69 CALM      29.90R
CLINTON        FAIR      79  70  73 SE5       29.92R
$$

ARZ036-290300-
EAST ARKANSAS

CITY           SKY/WX    TMP DP  RH WIND       PRES   REMARKS
WEST MEMPHIS   CLEAR     77  69  76 S7        29.95R
$$

ARZ050-053-066-070-073-290300-
SOUTHWEST ARKANSAS

CITY           SKY/WX    TMP DP  RH WIND       PRES   REMARKS
ARKADELPHIA    FAIR      77  73  87 CALM      29.91S
CAMDEN         CLEAR     77  68  73 CALM      29.91S
TEXARKANA      CLEAR     79  69  71 SE3       29.89S
EL DORADO      CLEAR     78  71  79 E3        29.91S
DE QUEEN       CLEAR     79  71  76 SE3       29.87R
$$

ARZ056-057-069-290300-
SOUTHEAST ARKANSAS

CITY           SKY/WX    TMP DP  RH WIND       PRES   REMARKS
PINE BLUFF     CLEAR     77  70  79 SE6       29.93S
STUTTGART      CLEAR     79  59  50 SE8       29.95R
MONTICELLO     CLEAR     78  70  76 CALM      29.94R

$$






USA.gov is the U.S. government's official web portal to all federal, state and local government web resources and services.